Location: Mohawk View
(42.7837°N, 73.7885°W)
Time: 06:33:39
(UTC+00:00)

Cosmos 405 Rocket - Pass Details

Date: 17 June 2021
Orbit: 489 x 552 km, 81.3° (Epoch: 03 August)

Event Time Altitude Azimuth Distance (km) Brightness Sun altitude
Exits shadow 05:49:13 41° 89° (E) 722 3.4 -22.7°
Drops below altitude 10° 05:52:36 10° 24° (NNE) 1,689 6.4 -22.6°
Sets 05:54:47 0° 17° (NNE) 2,575 7.8 -22.5°
